| time (UTC) | temp F | wind direction | speed MPH | gust MPH | rain 1hr in | rain 24hr in | rain mn in | humidity % | barometer mb |
| 20260503034539 | 50 | 132 | 5.0 | 11.0 | 0.00 | 0.00 | 0.00 | 51 | 1021.4 |
| 20260503033038 | 51 | 145 | 5.0 | 9.0 | 0.00 | 0.00 | 0.00 | 47 | 1021.2 |
| 20260503031548 | 51 | 171 | 4.0 | 7.0 | 0.00 | 0.00 | 0.00 | 44 | 1021.1 |
| 20260503030037 | 52 | 138 | 4.0 | 9.0 | 0.00 | 0.00 | 0.00 | 38 | 1020.7 |
| 20260503024536 | 53 | 150 | 5.0 | 10.0 | 0.00 | 0.00 | 0.00 | 35 | 1020.5 |
| 20260503023038 | 55 | 157 | 4.0 | 7.0 | 0.00 | 0.00 | 0.00 | 31 | 1020.3 |
| 20260503021539 | 56 | 149 | 4.0 | 8.0 | 0.00 | 0.00 | 0.00 | 30 | 1020.1 |
| 20260503020040 | 57 | 189 | 2.0 | 8.0 | 0.00 | 0.00 | 0.00 | 28 | 1020.0 |
| 20260503014536 | 59 | 170 | 3.0 | 6.0 | 0.00 | 0.00 | 0.00 | 26 | 1019.8 |
| 20260503013038 | 61 | 198 | 3.0 | 7.0 | 0.00 | 0.00 | 0.00 | 25 | 1019.7 |
| 20260503011534 | 61 | 190 | 5.0 | 9.0 | 0.00 | 0.00 | 0.00 | 23 | 1019.7 |
| 20260503010038 | 61 | 197 | 5.0 | 13.0 | 0.00 | 0.00 | 0.00 | 23 | 1019.7 |
| 20260503004532 | 62 | 140 | 5.0 | 9.0 | 0.00 | 0.00 | 0.00 | 22 | 1019.7 |
| 20260503003031 | 62 | 210 | 3.0 | 7.0 | 0.00 | 0.00 | 0.00 | 22 | 1019.6 |
| 20260503001531 | 63 | 184 | 0.0 | 5.0 | 0.00 | 0.00 | 0.00 | 21 | 1019.6 |
| 20260503000041 | 64 | 204 | 5.0 | 8.0 | 0.00 | 0.00 | 0.00 | 21 | 1019.7 |
| 20260502234531 | 66 | 201 | 6.0 | 10.0 | 0.00 | 0.03 | 0.00 | 19 | 1019.6 |
| 20260502233029 | 66 | 250 | 4.0 | 10.0 | 0.00 | 0.03 | 0.00 | 20 | 1019.7 |
| 20260502231529 | 66 | 302 | 5.0 | 11.0 | 0.00 | 0.03 | 0.00 | 19 | 1019.6 |
| 20260502230029 | 67 | 275 | 5.0 | 10.0 | 0.00 | 0.03 | 0.00 | 19 | 1019.6 |
| 20260502224525 | 68 | 245 | 6.0 | 12.0 | 0.00 | 0.03 | 0.00 | 19 | 1019.6 |
| 20260502223024 | 67 | 189 | 9.0 | 15.0 | 0.00 | 0.03 | 0.00 | 19 | 1019.8 |
| 20260502221524 | 67 | 140 | 2.0 | 10.0 | 0.00 | 0.03 | 0.00 | 19 | 1020.0 |
| 20260502220019 | 67 | 304 | 5.0 | 10.0 | 0.00 | 0.03 | 0.00 | 20 | 1020.2 |
| 20260502214514 | 65 | 260 | 5.0 | 11.0 | 0.00 | 0.03 | 0.00 | 22 | 1020.3 |
| 20260502213012 | 63 | 14 | 1.0 | 9.0 | 0.00 | 0.03 | 0.00 | 23 | 1020.6 |
| 20260502210006 | 65 | 328 | 5.0 | 9.0 | 0.00 | 0.03 | 0.00 | 22 | 1021.0 |
| 20260502204504 | 63 | 97 | 3.0 | 10.0 | 0.00 | 0.03 | 0.00 | 28 | 1021.2 |
| 20260502203003 | 60 | 281 | 1.0 | 5.0 | 0.00 | 0.03 | 0.00 | 30 | 1021.3 |
| 20260502200100 | 63 | 63 | 2.0 | 5.0 | 0.00 | 0.03 | 0.00 | 27 | 1021.5 |
| 20260502194614 | 63 | 275 | 3.0 | 10.0 | 0.00 | 0.03 | 0.00 | 28 | 1021.7 |
| 20260502193106 | 60 | 288 | 2.0 | 10.0 | 0.00 | 0.03 | 0.00 | 31 | 1021.8 |
| 20260502191651 | 59 | 67 | 2.0 | 6.0 | 0.00 | 0.03 | 0.00 | 32 | 1022.0 |
| 20260502190052 | 60 | 38 | 3.0 | 9.0 | 0.00 | 0.03 | 0.00 | 31 | 1022.1 |
| 20260502184559 | 59 | 61 | 6.0 | 9.0 | 0.00 | 0.03 | 0.00 | 35 | 1022.4 |
| 20260502183047 | 60 | 57 | 2.0 | 9.0 | 0.00 | 0.03 | 0.00 | 32 | 1022.5 |
| 20260502181548 | 59 | 237 | 5.0 | 9.0 | 0.00 | 0.03 | 0.00 | 38 | 1022.6 |
| 20260502163022 | 50 | 338 | 6.0 | 12.0 | 0.00 | 0.03 | 0.00 | 56 | 1023.1 |
| 20260502161515 | 48 | 331 | 7.0 | 16.0 | 0.00 | 0.03 | 0.00 | 61 | 1023.0 |
| 20260502151552 | 45 | 355 | 8.0 | 16.0 | 0.00 | 0.03 | 0.00 | 70 | 1023.1 |
| 20260502130106 | 38 | 346 | 3.0 | 10.0 | 0.00 | 0.03 | 0.00 | 88 | 1022.7 |
| 20260502123108 | 37 | 347 | 2.0 | 5.0 | 0.00 | 0.03 | 0.00 | 88 | 1022.5 |
| 20260502121534 | 38 | 331 | 2.0 | 6.0 | 0.00 | 0.03 | 0.00 | 86 | 1022.5 |
| 20260502114533 | 38 | 5 | 2.0 | 6.0 | 0.00 | 0.04 | 0.00 | 86 | 1022.4 |
| 20260502113030 | 38 | 348 | 4.0 | 9.0 | 0.00 | 0.04 | 0.00 | 87 | 1022.6 |
| 20260502111532 | 38 | 5 | 5.0 | 9.0 | 0.00 | 0.04 | 0.00 | 89 | 1022.7 |
| 20260502110037 | 38 | 355 | 1.0 | 5.0 | 0.00 | 0.04 | 0.00 | 89 | 1022.7 |
| 20260502104526 | 37 | 9 | 4.0 | 10.0 | 0.00 | 0.05 | 0.00 | 87 | 1022.6 |
| 20260502103023 | 38 | 348 | 3.0 | 6.0 | 0.00 | 0.05 | 0.00 | 84 | 1022.5 |
| 20260502101521 | 38 | 82 | 0.0 | 3.0 | 0.00 | 0.05 | 0.00 | 82 | 1022.4 |
| 20260502091516 | 40 | 82 | 0.0 | 4.0 | 0.00 | 0.06 | 0.00 | 80 | 1021.9 |
| 20260502071509 | 40 | 136 | 5.0 | 10.0 | 0.00 | 0.15 | 0.00 | 81 | 1022.5 |
| 20260502070005 | 39 | 150 | 3.0 | 8.0 | 0.00 | 0.15 | 0.00 | 82 | 1022.6 |
| 20260502064505 | 39 | 154 | 6.0 | 11.0 | 0.00 | 0.15 | 0.00 | 83 | 1022.5 |
| 20260502063002 | 39 | 180 | 4.0 | 9.0 | 0.00 | 0.15 | 0.00 | 84 | 1022.5 |
| 20260502061600 | 39 | 144 | 4.0 | 10.0 | 0.00 | 0.15 | 0.00 | 84 | 1022.4 |
| 20260502060113 | 39 | 158 | 4.0 | 12.0 | 0.00 | 0.15 | 0.00 | 84 | 1022.2 |
| 20260502054556 | 39 | 159 | 6.0 | 12.0 | 0.00 | 0.15 | 0.14 | 84 | 1022.1 |
| 20260502053054 | 39 | 161 | 5.0 | 11.0 | 0.00 | 0.15 | 0.14 | 84 | 1022.2 |
| 20260502051557 | 39 | 169 | 5.0 | 11.0 | 0.00 | 0.15 | 0.14 | 84 | 1022.1 |
| 20260502050051 | 38 | 140 | 5.0 | 10.0 | 0.00 | 0.15 | 0.14 | 85 | 1022.1 |
| 20260502044548 | 38 | 128 | 4.0 | 9.0 | 0.00 | 0.15 | 0.14 | 84 | 1021.7 |
| 20260502043056 | 39 | 147 | 4.0 | 8.0 | 0.00 | 0.15 | 0.14 | 84 | 1021.7 |
| 20260502041552 | 38 | 148 | 6.0 | 12.0 | 0.00 | 0.15 | 0.14 | 84 | 1021.5 |
| 20260502040044 | 38 | 128 | 7.0 | 11.0 | 0.00 | 0.15 | 0.14 | 85 | 1021.5 |